26 Sep
2007
26 Sep
'07
11:04 a.m.
ISS 1 25544U 98067A 07269.37582516 .00007575 00000-0 53517-4 0 508 2 25544 051.6342 301.8027 0002511 042.1742 035.8614 15.75217004506744
6297
Age (days ago)
6297
Last active (days ago)
0 comments
1 participants
participants (1)
-
Dave Larsen PhD